[[{"header":{"parameterUnit":"m.s-1","parameterCategory":1,"la1":30.2991,"la2":30.254,"lo1":-89.0895,"lo2":-89.0444,"dy":0.0017,"dx":0.0017,"nx":28,"ny":28,"refTime":"2024-11-29T03:00:00:Z","depth":0,"parameterNumber":2,"parameterNumberName":"U-component_of_WINDS"},"data":[0,0,0,0,0,0,0,0,0,0,0,0,0,0,0,0,0,0,0,0,0,0,0,0,0,0,0,0,0,0,0,0,0,0,0,0,0,0,0,0,0,0,0,0,0,0,0,0,0,0,0,0,0,0,0,0,0,0,0.0074,0.0074,0,0.0076,0.0076,0.0076,0.0088,0.0088,0.0089,0.0089,0.0092,0.0092,0.0091,0,0,0,0,0,0,0,0,0,0,0,0,0,0.0081,0.0081,0.0074,0.0074,0.0074,0.0076,0.0076,0.0077,0.0088,0.0088,0.0089,0.0089,0.0092,0.0092,0.0091,0,0,0,0,0,0,0,0,0,0,0,0,0,0.008,0.0081,0.0074,0.008,0.0081,0.0076,0.0076,0.0077,0.0088,0.0088,0.0089,0.0089,0.0092,0.0092,0.0091,0.0082,0,0,0.0091,0.009,0,0,0,0,0,0,0,0,0.008,0.008,0.0079,0.008,0.008,0.0082,0.008,0.0078,0.0088,0.0085,0.0089,0.0089,0.0088,0.0088,0.0088,0.0082,0.0082,0.0091,0.009,0.009,0.009,0,0,0,0,0,0,0,0.008,0.008,0.0075,0.0079,0.008,0.0083,0.0084,0.008,0.0084,0.0085,0.0086,0.0086,0.0089,0.0088,0.0088,0.0082,0.0091,0.009,0.009,0.009,0.007,0.0069,0,0,0,0,0,0,0.0079,0.008,0.0075,0.0075,0.0081,0.0083,0.0083,0.0081,0.0085,0.0085,0.0086,0.0087,0.0088,0.0088,0.0088,0.0078,0.009,0.009,0.009,0.007,0.007,0.0069,0,0,0,0,0,0,0.0079,0.0079,0.0075,0.0078,0.0077,0.0082,0.008,0.0081,0.0081,0.0085,0.0086,0.0084,0.0089,0.0089,0.0084,0.0078,0.009,0.009,0.0071,0.007,0.0069,0.0057,0,0,0,0,0,0,0.0079,0.0079,0.0074,0.0077,0.0077,0.0069,0.008,0.0081,0.008,0.0081,0.0084,0.0085,0.0089,0.0084,0.0083,0.0078,0.0089,0.0071,0.007,0.007,0.0058,0.0056,0.0054,0,0,0,0,0,0.008,0.0071,0.0074,0.0073,0.0072,0.0069,0.0069,0.0074,0.008,0.0076,0.0079,0.0085,0.0079,0.0083,0.0083,0.0077,0.0071,0.007,0.007,0.0059,0.0056,0.0054,0,0,0,0,0,0,0.0066,0.0071,0.0075,0.0067,0.0067,0.0071,0.0066,0.0071,0.0071,0.0072,0.0079,0.0079,0.0073,0.0075,0.0079,0.0069,0.0076,0.0075,0.0068,0.0066,0.0064,0.0064,0.0089,0,0,0,0,0,0.0063,0.0059,0.0064,0.0056,0.0056,0.0061,0.006,0.0064,0.0065,0.0066,0.0068,0.007,0.0068,0.0067,0.0066,0.0058,0.006,0.0055,0.0053,0.0051,0.005,0.0048,0.0046,0.0066,0.0066,0.0066,0,0,0.0054,0.0057,0.0054,0.0053,0.0054,0.0052,0.0061,0.0058,0.0056,0.0065,0.0061,0.0063,0.0065,0.0059,0.0056,0.006,0.0045,0.005,0.0049,0.0049,0.0047,0.0045,0.0043,0.0066,0.0066,0.0066,0,0,0.0038,0.0039,0.0033,0.0035,0.0037,0.004,0.0039,0.0042,0.0044,0.004,0.0047,0.0045,0.0043,0.0044,0.0045,0.0031,0.0037,0.0031,0.0022,0.0019,0.0017,0.0016,0.0012,0.001,0.003,0.003,0.003,0,0.0028,0.0024,0.003,0.0026,0.0026,0.0035,0.003,0.0031,0.0032,0.0032,0.0036,0.0034,0.0036,0.0031,0.0028,0.0027,0.0027,0.003,0.0017,0.0016,0.0014,0.0011,0.0009,0.0029,0.0029,0.0029,0.0029,0,0.0012,0.0009,0.0004,0.0005,0.0005,0.0,0.0006,0.0005,0.001,0.0013,0.001,0.0013,0.0013,0.0012,0.0016,0.0008,0.001,0.0016,0.0023,0.0012,0.0008,0.0007,0.0028,0.0028,0.0028,0.0028,0,0,-0.0014,-0.0008,-0.001,-0.0008,-0.0005,-0.0007,-0.001,-0.001,-0.001,-0.0009,-0.0011,-0.0013,-0.0007,-0.0007,-0.0002,-0.0005,-0.0014,0.0001,0.0001,-0.0001,-0.0022,-0.0026,-0.0028,-0.001,-0.0011,-0.0011,-0.0022,0,-0.0029,-0.0035,-0.0029,-0.0036,-0.0037,-0.0028,-0.0031,-0.0029,-0.0025,-0.0026,-0.0022,-0.0023,-0.0016,-0.0015,-0.0017,-0.0013,-0.0018,-0.0012,-0.0012,-0.0012,-0.0012,-0.0029,-0.0034,-0.0044,-0.0023,-0.0023,-0.0024,0,-0.0047,-0.0046,-0.0053,-0.0048,-0.0049,-0.0051,-0.005,-0.0051,-0.0047,-0.0044,-0.0043,-0.0037,-0.0039,-0.0032,-0.0034,-0.0029,-0.0029,-0.0026,-0.0027,-0.0026,-0.0018,-0.0029,-0.0048,-0.0049,-0.0026,-0.0026,-0.0025,0,-0.0064,-0.0065,-0.0069,-0.0068,-0.0062,-0.0064,-0.0062,-0.0058,-0.0057,-0.0056,-0.0055,-0.0054,-0.0053,-0.0051,-0.0045,-0.004,-0.0047,-0.004,-0.0044,-0.0044,-0.0046,-0.0046,-0.0065,-0.0046,-0.0046,-0.0046,-0.0046,0,-0.0081,-0.0086,-0.0076,-0.0079,-0.0083,-0.0075,-0.0079,-0.0076,-0.0072,-0.0073,-0.0065,-0.0066,-0.0058,-0.0057,-0.0052,-0.0054,-0.0054,-0.0051,-0.0049,-0.0051,-0.0052,-0.0051,-0.005,-0.0047,-0.0047,-0.0047,-0.0047,0,-0.0101,-0.0095,-0.0099,-0.0092,-0.0091,-0.0094,-0.0088,-0.009,-0.0085,-0.0086,-0.0086,-0.0079,-0.0078,-0.0071,-0.0069,-0.0065,-0.0068,-0.0066,-0.007,-0.0069,-0.0073,-0.0073,-0.0092,-0.0093,-0.0075,-0.0075,-0.0075,0,-0.0113,-0.0116,-0.0109,-0.0109,-0.0107,-0.0108,-0.0107,-0.0099,-0.0098,-0.0094,-0.0096,-0.0094,-0.0092,-0.0091,-0.0085,-0.0083,-0.0079,-0.0086,-0.0079,-0.0081,-0.0079,-0.0079,-0.0078,-0.0088,-0.0088,-0.0088,-0.0088,0,-0.0133,-0.0129,-0.0129,-0.0127,-0.0126,-0.0124,-0.0121,-0.0122,-0.0113,-0.0112,-0.0111,-0.011,-0.0107,-0.0105,-0.0101,-0.0098,-0.0091,-0.009,-0.0091,-0.0094,-0.0095,-0.0094,-0.0073,-0.009,-0.009,-0.009,-0.009,-0.009,-0.0149,-0.015,-0.0146,-0.0145,-0.0142,-0.014,-0.014,-0.0135,-0.0134,-0.0131,-0.0126,-0.0125,-0.012,-0.0115,-0.0112,-0.0111,-0.0107,-0.0108,-0.0109,-0.0109,-0.011,-0.0096,-0.011,-0.011,-0.011,-0.011,-0.011,0,-0.0168,-0.0164,-0.0164,-0.016,-0.0159,-0.0153,-0.0149,-0.0148,-0.0148,-0.0144,-0.0142,-0.014,-0.0137,-0.0131,-0.0127,-0.0128,-0.0124,-0.0127,-0.0127,-0.0126,-0.0114,-0.0113,-0.013,-0.013,-0.013,-0.013,-0.013,-0.013,-0.0178,-0.0181,-0.0176,-0.0176,-0.0172,-0.0172,-0.017,-0.0167,-0.0164,-0.0162,-0.016,-0.0155,-0.015,-0.0146,-0.0143,-0.0141,-0.014,-0.0143,-0.014,-0.0129,-0.0127,-0.0125,-0.0124,-0.0143,-0.0143,-0.0152,-0.0152,-0.0152]},{"header":{"parameterUnit":"m.s-1","parameterCategory":1,"la1":30.2991,"la2":30.254,"lo1":-89.0895,"lo2":-89.0444,"dy":0.0017,"dx":0.0017,"nx":28,"ny":28,"refTime":"2024-11-29T03:00:00:Z","depth":0,"parameterNumber":3,"parameterNumberName":"V-component_of_WINDS"},"data":[0,0,0,0,0,0,0,0,0,0,0,0,0,0,0,0,0,0,0,0,0,0,0,0,0,0,0,0,0,0,0,0,0,0,0,0,0,0,0,0,0,0,0,0,0,0,0,0,0,0,0,0,0,0,0,0,0,0,-4.876,-4.8761,0,-4.8877,-4.8878,-4.888,-4.8912,-4.8912,-4.8911,-4.891,-4.9023,-4.9026,-4.903,0,0,0,0,0,0,0,0,0,0,0,0,0,-4.856,-4.8564,-4.876,-4.8761,-4.8763,-4.8877,-4.8878,-4.888,-4.8912,-4.8912,-4.8911,-4.891,-4.9021,-4.9026,-4.903,0,0,0,0,0,0,0,0,0,0,0,0,0,-4.8659,-4.8565,-4.876,-4.8793,-4.8797,-4.8877,-4.8879,-4.888,-4.8913,-4.8912,-4.8911,-4.891,-4.902,-4.9025,-4.903,-4.9083,0,0,-4.9047,-4.9049,0,0,0,0,0,0,0,0,-4.8653,-4.8666,-4.8787,-4.8791,-4.8796,-4.8879,-4.8849,-4.8948,-4.8913,-4.8868,-4.891,-4.8909,-4.8975,-4.8984,-4.9008,-4.9088,-4.9093,-4.9047,-4.9051,-4.9053,-4.9054,0,0,0,0,0,0,0,-4.8646,-4.8661,-4.8806,-4.8788,-4.8794,-4.8801,-4.8814,-4.8868,-4.8925,-4.8872,-4.8875,-4.8889,-4.8977,-4.9003,-4.9011,-4.9094,-4.9047,-4.9052,-4.9055,-4.9057,-4.9228,-4.9229,0,0,0,0,0,0,-4.8635,-4.8655,-4.8802,-4.8809,-4.8721,-4.8805,-4.882,-4.8853,-4.8925,-4.8935,-4.889,-4.889,-4.8994,-4.9004,-4.9015,-4.9084,-4.9053,-4.9058,-4.9061,-4.9226,-4.9228,-4.9229,0,0,0,0,0,0,-4.863,-4.8647,-4.8798,-4.8733,-4.8753,-4.881,-4.8847,-4.8856,-4.8882,-4.8938,-4.8948,-4.8905,-4.8994,-4.9007,-4.9067,-4.9088,-4.906,-4.9065,-4.9225,-4.9227,-4.9229,-4.922,0,0,0,0,0,0,-4.8624,-4.8646,-4.8667,-4.8734,-4.8756,-4.8849,-4.8848,-4.8859,-4.8892,-4.8893,-4.8955,-4.8965,-4.8994,-4.9059,-4.9073,-4.9095,-4.9069,-4.9223,-4.9226,-4.9228,-4.9219,-4.9221,-4.9224,0,0,0,0,0,-4.8617,-4.8657,-4.8667,-4.8685,-4.8784,-4.885,-4.8863,-4.8898,-4.8893,-4.8915,-4.8952,-4.8963,-4.9084,-4.9065,-4.908,-4.9105,-4.9222,-4.9225,-4.9228,-4.9218,-4.9221,-4.9224,0,0,0,0,0,0,-4.8586,-4.8666,-4.8679,-4.8742,-4.879,-4.8856,-4.8883,-4.89,-4.8947,-4.8947,-4.8986,-4.9,-4.9058,-4.9087,-4.9064,-4.9161,-4.9153,-4.9159,-4.914,-4.9144,-4.9146,-4.9138,-4.9074,0,0,0,0,0,-4.8588,-4.8637,-4.8703,-4.8752,-4.8776,-4.8826,-4.8855,-4.8879,-4.8929,-4.8948,-4.8989,-4.9036,-4.9085,-4.9116,-4.9163,-4.9223,-4.9238,-4.9248,-4.9251,-4.9252,-4.9257,-4.9294,-4.93,-4.9239,-4.9239,-4.9239,0,0,-4.8589,-4.8639,-4.8666,-4.8747,-4.8787,-4.8836,-4.8842,-4.8892,-4.8929,-4.8955,-4.9016,-4.9048,-4.9102,-4.9164,-4.9192,-4.919,-4.9278,-4.9256,-4.9257,-4.9261,-4.9298,-4.9304,-4.9309,-4.9241,-4.9241,-4.924,0,0,-4.8618,-4.866,-4.8708,-4.8749,-4.8811,-4.8845,-4.8856,-4.8922,-4.8945,-4.9008,-4.9029,-4.9073,-4.9155,-4.9194,-4.9225,-4.9274,-4.9287,-4.9288,-4.9302,-4.9338,-4.9342,-4.9347,-4.9367,-4.9373,-4.9293,-4.9293,-4.9293,0,-4.8611,-4.8688,-4.8729,-4.8781,-4.8816,-4.8847,-4.8895,-4.8932,-4.9005,-4.9029,-4.9025,-4.9133,-4.9171,-4.9244,-4.9257,-4.928,-4.9295,-4.9281,-4.9339,-4.9344,-4.9349,-4.9368,-4.9375,-4.9293,-4.9293,-4.9293,-4.9293,0,-4.8678,-4.8732,-4.8762,-4.8837,-4.8876,-4.8925,-4.8974,-4.9008,-4.9029,-4.9064,-4.9128,-4.9176,-4.9236,-4.9255,-4.9274,-4.9331,-4.9328,-4.9331,-4.9324,-4.9354,-4.9373,-4.938,-4.9293,-4.9293,-4.9293,-4.9293,0,0,-4.8687,-4.8789,-4.8799,-4.8836,-4.8909,-4.895,-4.9002,-4.9064,-4.9094,-4.9144,-4.9189,-4.9261,-4.9266,-4.9301,-4.9325,-4.9357,-4.9396,-4.9357,-4.9358,-4.9364,-4.9465,-4.9463,-4.9471,-4.9406,-4.9407,-4.9408,-4.9462,0,-4.8726,-4.8823,-4.8864,-4.8941,-4.8992,-4.9024,-4.907,-4.9119,-4.9154,-4.9201,-4.9237,-4.9289,-4.9291,-4.9313,-4.9345,-4.9385,-4.9417,-4.9381,-4.9447,-4.9449,-4.9434,-4.9481,-4.9478,-4.9525,-4.9469,-4.947,-4.9471,0,-4.8783,-4.884,-4.8924,-4.8996,-4.9019,-4.9059,-4.9122,-4.9167,-4.9224,-4.9247,-4.9289,-4.9313,-4.9369,-4.9359,-4.9436,-4.9411,-4.9441,-4.9464,-4.9467,-4.9475,-4.9462,-4.9491,-4.9541,-4.9549,-4.9483,-4.9482,-4.9481,0,-4.8785,-4.8881,-4.8945,-4.8974,-4.9059,-4.9087,-4.9123,-4.918,-4.9217,-4.9271,-4.9295,-4.9354,-4.9386,-4.943,-4.9469,-4.9458,-4.9544,-4.9536,-4.9565,-4.9564,-4.9581,-4.9579,-4.9638,-4.9599,-4.9598,-4.9598,-4.9598,0,-4.8824,-4.8874,-4.8947,-4.8986,-4.9045,-4.9091,-4.9147,-4.9185,-4.9236,-4.9283,-4.9313,-4.9356,-4.9405,-4.9454,-4.9485,-4.9546,-4.9559,-4.9579,-4.9587,-4.9577,-4.9575,-4.9597,-4.9595,-4.96,-4.96,-4.9599,-4.9599,0,-4.8834,-4.8885,-4.8957,-4.9034,-4.9054,-4.9094,-4.9159,-4.9198,-4.9236,-4.9295,-4.9311,-4.9369,-4.9429,-4.9474,-4.9549,-4.9571,-4.9636,-4.9643,-4.9618,-4.9622,-4.9649,-4.9646,-4.9724,-4.9738,-4.9688,-4.9688,-4.9689,0,-4.8856,-4.8897,-4.898,-4.9015,-4.9053,-4.9108,-4.9148,-4.9196,-4.9235,-4.9307,-4.9338,-4.9401,-4.9454,-4.9548,-4.9596,-4.9655,-4.9665,-4.9688,-4.9673,-4.9664,-4.9667,-4.9665,-4.967,-4.969,-4.969,-4.969,-4.9691,0,-4.889,-4.8915,-4.8972,-4.904,-4.9087,-4.9141,-4.9195,-4.9222,-4.928,-4.9322,-4.9387,-4.9428,-4.951,-4.9572,-4.9637,-4.9673,-4.9692,-4.9696,-4.9706,-4.9696,-4.9681,-4.9692,-4.9625,-4.9693,-4.9693,-4.9693,-4.9693,-4.9692,-4.8908,-4.8948,-4.9014,-4.9078,-4.9125,-4.9177,-4.9219,-4.9265,-4.932,-4.9393,-4.9417,-4.9484,-4.9544,-4.9634,-4.9671,-4.9723,-4.9722,-4.9736,-4.974,-4.9743,-4.9744,-4.9673,-4.9735,-4.9735,-4.9735,-4.9735,-4.9735,0,-4.8946,-4.8992,-4.905,-4.9129,-4.9179,-4.9197,-4.926,-4.93,-4.936,-4.9416,-4.947,-4.9545,-4.9607,-4.9662,-4.9727,-4.9758,-4.9769,-4.9773,-4.9772,-4.978,-4.9739,-4.9725,-4.9764,-4.9764,-4.9764,-4.9764,-4.9764,-4.9764,-4.8972,-4.9041,-4.9074,-4.9168,-4.9212,-4.9281,-4.9316,-4.9364,-4.941,-4.9494,-4.9548,-4.9585,-4.9641,-4.971,-4.9769,-4.9783,-4.9806,-4.9809,-4.9825,-4.9786,-4.9782,-4.9779,-4.9766,-4.9813,-4.9813,-4.9862,-4.9863,-4.9863]}]]